QPF
0.00 0.00 0.00 0.00 0.00 0.00 0.00 0.00 0.00 0.00 0.00 0.00 0.00 0.00 0.00 0.00 0.00 0.00 0.00 0.00 0.00 0.00
0.00 0.00 0.00 0.00 0.00 0.00 0.00 0.00 0.00 0.00 0.00 0.00 0.00 0.00 0.00 0.00 0.00 0.00 0.00 0.00 0.00 0.00
0.00 0.00 0.00 0.00 0.00 0.00 0.00 0.00 0.00 0.00 0.00 0.00 0.00 0.00 0.00 0.00 0.00 0.00 0.00 0.00 0.00 0.00
0.00 0.00 0.00 0.00 0.00 0.00 0.00 0.00 0.00 0.00 0.00 0.00 0.00 0.00 0.00 0.00 0.00 0.00 0.00 0.00 0.00 0.00
0.00 0.00 0.00 0.00 0.00 0.00 0.00 0.00 0.00 0.00 0.00 0.00 0.00 0.00 0.00 0.00 0.00 0.00 0.00 0.00 0.00 0.00
0.00 0.00 0.00 0.00 0.00 0.00 0.00 0.00 0.00 0.00 0.00 0.00 0.00 0.00 0.00 0.00 0.00 0.00 0.00 0.00 0.00 0.00
0.00 0.00 0.00 0.00 0.00 0.00 0.00 0.00 0.00 0.00 0.00 0.00 0.00 0.00 0.00 0.00 0.00 0.00 0.00 0.00 0.00 0.00
0.00 0.00 0.00 0.00 0.00 0.00 0.00 0.00 0.00 0.00 0.00 0.00 0.00 0.00 0.00 0.00 0.00 0.00 0.00 0.00 0.00 0.00
0.00 0.00 0.00 0.00 0.00 0.00 0.00 0.00 0.00 0.00 0.00 0.00 0.00 0.00 0.00 0.00 0.00 0.00 0.00 0.00 0.00 0.00
0.00 0.00 0.00 0.00 0.00 0.00 0.00 0.00 0.00 0.00 0.00 0.00 0.00 0.00 0.00 0.00 0.00 0.00 0.00 0.00 0.00 0.00
0.00 0.00 0.00 0.00 0.00 0.00 0.00 0.00 0.00 0.00 0.00 0.00 0.00 0.00 0.00 0.00 0.00 0.00 0.00 0.00 0.00 0.00
0.00 0.00 0.00 0.00 0.00 0.00 0.00 0.00 0.00 0.00 0.00 0.00 0.00 0.00 0.00 0.00 0.00 0.00 0.00 0.00 0.00 0.00
0.00 0.00 0.00 0.00 0.00 0.00 0.00 0.00 0.00 0.00 0.00 0.00 0.00 0.00 0.00 0.00 0.00 0.00 0.00 0.00 0.00 0.00
0.00 0.00 0.00 0.00 0.00 0.00 0.00 0.00 0.00 0.00 0.00 0.00 0.00 0.00 0.00 0.00 0.00 0.00 0.00 0.00 0.00 0.00
MSLP
1015.52 1015.82 1016.12 1016.57 1016.78 1017.01 1017.36 1017.48 1017.59 1018.01 1018.50 1018.89 1019.22 1019.57 1019.89 1020.25 1020.47 1020.69 1020.86 1020.90 1021.09 1020.95
1015.22 1015.33 1015.69 1016.01 1016.36 1016.61 1016.82 1017.05 1017.29 1017.54 1018.21 1018.52 1018.86 1019.15 1019.52 1020.09 1020.27 1020.45 1020.66 1020.78 1020.91 1020.93
1014.55 1014.86 1015.19 1015.57 1015.85 1016.06 1016.21 1016.51 1016.79 1017.37 1017.82 1018.27 1018.50 1018.78 1019.39 1019.85 1020.10 1020.37 1020.45 1020.49 1020.69 1020.76
1014.10 1014.48 1014.81 1015.11 1015.33 1015.59 1015.73 1016.13 1016.55 1017.06 1017.58 1018.05 1018.39 1018.69 1019.19 1019.55 1019.81 1020.13 1020.32 1020.38 1020.57 1020.65
1013.35 1013.91 1014.26 1014.56 1014.84 1015.18 1015.40 1015.81 1016.27 1016.67 1017.21 1017.67 1018.03 1018.28 1018.71 1019.15 1019.39 1019.74 1020.04 1020.10 1020.28 1020.38
1012.47 1012.97 1013.28 1013.72 1014.15 1014.48 1014.96 1015.31 1015.89 1016.25 1016.67 1017.11 1017.50 1017.82 1018.19 1018.60 1018.95 1019.21 1019.39 1019.49 1019.73 1019.88
1011.43 1011.93 1012.47 1012.96 1013.53 1013.99 1014.27 1014.76 1015.16 1015.61 1016.02 1016.33 1016.75 1017.23 1017.63 1018.05 1018.41 1018.65 1018.89 1019.04 1019.16 1019.27
1010.50 1011.31 1011.96 1012.43 1012.85 1013.43 1013.80 1014.04 1014.45 1014.97 1015.45 1015.82 1016.24 1016.68 1017.12 1017.52 1017.90 1018.16 1018.35 1018.45 1018.59 1018.67
1009.75 1010.31 1010.78 1011.46 1011.99 1012.60 1013.09 1013.41 1013.82 1014.29 1014.75 1015.24 1015.53 1015.89 1016.39 1016.85 1017.28 1017.51 1017.71 1017.91 1017.95 1018.01
1008.58 1009.28 1009.83 1010.54 1011.21 1011.70 1012.18 1012.81 1013.07 1013.44 1013.97 1014.39 1014.78 1015.12 1015.59 1016.06 1016.49 1016.85 1017.04 1017.18 1017.37 1017.53
1007.30 1008.10 1008.95 1009.62 1010.19 1010.82 1011.32 1011.79 1012.22 1012.65 1013.15 1013.68 1014.02 1014.47 1014.90 1015.29 1015.77 1015.99 1016.14 1016.30 1016.50 1016.72
1006.20 1007.00 1007.81 1008.46 1008.99 1009.63 1010.29 1010.77 1011.12 1011.63 1012.20 1012.68 1013.12 1013.63 1014.17 1014.71 1015.22 1015.23 1015.24 1015.34 1015.58 1015.85
1005.24 1005.91 1006.47 1007.25 1007.93 1008.54 1009.10 1009.56 1010.28 1010.71 1011.12 1011.65 1012.17 1012.73 1013.20 1013.83 1014.33 1014.61 1014.55 1014.69 1014.80 1014.91
1004.04 1004.62 1005.28 1006.14 1006.92 1007.53 1008.20 1008.78 1009.27 1009.79 1010.24 1010.80 1011.30 1011.72 1012.24 1012.73 1013.27 1013.39 1013.58 1013.73 1013.81 1013.97
Thickness
5809 5809 5809 5807 5808 5808 5807 5808 5806 5803 5802 5799 5796 5793 5791 5790 5788 5787 5787 5787 5786 5787
5810 5812 5811 5811 5812 5811 5812 5811 5809 5807 5804 5802 5800 5798 5796 5793 5791 5790 5790 5789 5789 5789
5813 5814 5814 5814 5813 5814 5816 5815 5813 5810 5808 5806 5804 5802 5799 5796 5795 5792 5792 5793 5791 5792
5812 5814 5815 5815 5817 5817 5819 5817 5816 5814 5810 5808 5806 5805 5801 5799 5798 5795 5793 5794 5792 5792
5813 5814 5815 5815 5817 5818 5818 5819 5815 5816 5813 5810 5809 5809 5805 5802 5803 5799 5795 5795 5794 5794
5814 5816 5819 5819 5818 5819 5818 5817 5817 5815 5814 5812 5811 5810 5810 5807 5804 5803 5801 5800 5798 5797
5816 5818 5818 5820 5819 5818 5819 5817 5817 5817 5816 5816 5815 5813 5812 5810 5807 5805 5804 5803 5802 5801
5817 5816 5815 5817 5820 5818 5818 5819 5818 5817 5816 5816 5816 5815 5812 5811 5809 5807 5805 5805 5804 5805
5819 5817 5819 5819 5820 5819 5818 5819 5819 5818 5817 5815 5817 5817 5815 5813 5810 5810 5807 5804 5805 5807
5824 5820 5820 5819 5818 5819 5820 5817 5819 5820 5819 5818 5818 5817 5816 5814 5813 5811 5809 5807 5806 5806
5831 5826 5822 5821 5820 5820 5820 5820 5819 5819 5820 5818 5820 5817 5815 5813 5813 5812 5812 5811 5810 5809
5835 5830 5826 5823 5823 5822 5820 5820 5822 5821 5820 5820 5821 5818 5815 5811 5810 5812 5813 5815 5814 5813
5836 5834 5832 5828 5825 5824 5824 5823 5820 5821 5822 5822 5821 5819 5816 5812 5813 5810 5813 5814 5815 5815
5838 5838 5837 5832 5827 5826 5823 5821 5821 5820 5821 5820 5821 5821 5817 5814 5816 5816 5814 5815 5816 5819